Flag Weather past 2 weeks in Fort Liard, Northwest Territories, Canada

Now
-22 °F

Extremely cold.


Feels Like: -22 °F
Forecast: -14 / 3 °F
Wind: 1 mph from North

Location: Lindberg Landing

Current Time: Nov 25, 2014 at 2:27:35 PM

Latest Report: Nov 25, 2014 at 1:00 PM


Visibility: N/A

Pressure: 30.33 "Hg

Humidity: 77%

Dew point: -27 °F

Location of Fort LiardLocation

Historic Weather in Fort Liard — Graph

°F

Fort Liard temperature yesterday

Maximum temperature yesterday: -4 °F (at 1:00 AM)
Minimum temperature yesterday: -25 °F (at 11:00 PM)
Average temperature yesterday: -11 °F

Past Weeks' High & Low Weather Summary

 TemperatureHumidityPressure
High28 °F (Nov 19, 3:00 PM)100% (Nov 20, 8:00 AM)30.84 "Hg (Nov 20, 8:00 AM)
Low-30 °F (Nov 25, 10:00 AM)63% (Nov 25, 11:00 AM)29.67 "Hg (Nov 20, 2:00 PM)
Average0 °F84%30.25 "Hg
* Reported Nov 10 1:00 PM — Nov 25 1:00 PM, Fort Liard, Weather by CustomWeather, © 2014

Note: Actual official high and low records may vary slightly from our data, if they occured in-between our weather recording intervals... More about our weather records

Advertising

Fort Liard weather history for previous 24 hours

 ConditionsComfort  
Time TempWeatherWind HumidityBarometerVisibility
1:00 PM
Nov 25
-22 °FExtremely cold.1 mph77%30.33 "HgN/A
12:00 PM-26 °FExtremely cold.No wind64%30.34 "HgN/A
11:00 AM-26 °FExtremely cold.No wind63%30.34 "HgN/A
10:00 AM-30 °FExtremely cold.No wind70%30.34 "HgN/A
9:00 AM-29 °FExtremely cold.No wind70%30.33 "HgN/A
8:00 AM-28 °FExtremely cold.No wind72%30.32 "HgN/A
7:00 AM-27 °FExtremely cold.No wind72%30.32 "HgN/A
6:00 AM-27 °FExtremely cold.No wind72%30.32 "HgN/A
5:00 AM-28 °FExtremely cold.No wind72%30.31 "HgN/A
4:00 AM-28 °FExtremely cold.No wind72%30.30 "HgN/A
3:00 AM-27 °FExtremely cold.No wind73%30.30 "HgN/A
2:00 AM-28 °FExtremely cold.No wind73%30.29 "HgN/A
1:00 AM-27 °FExtremely cold.No wind73%30.27 "HgN/A
12:00 AM-26 °FExtremely cold.No wind74%30.26 "HgN/A
11:00 PM
Nov 24
-25 °FExtremely cold.No wind74%30.24 "HgN/A
10:00 PM-23 °FExtremely cold.1 mph76%30.23 "HgN/A
9:00 PM-21 °FExtremely cold.1 mph77%30.22 "HgN/A
8:00 PM-17 °FExtremely cold.2 mph78%30.21 "HgN/A
7:00 PM-14 °FExtremely cold.2 mph80%30.19 "HgN/A
6:00 PM-12 °FExtremely cold.3 mph79%30.17 "HgN/A
5:00 PM-12 °FExtremely cold.3 mph81%30.16 "HgN/A
4:00 PM-11 °FExtremely cold.2 mph81%30.16 "HgN/A
3:00 PM-10 °FFrigid.1 mph80%30.16 "HgN/A
2:00 PM-8 °FFrigid.5 mph79%30.15 "HgN/A
Weather by CustomWeather, © 2014

See weather overviewHow to use our weather pages